Location: *
(51.8167°N, 12.5000°E)
Time: 07:07:34
(UTC+00:00)

H-2A R/B - Pass Details

Date: 16 September 2019
Orbit: 734 x 836 km, 98.3° (Epoch: 21 October)

Event Time Altitude Azimuth Distance (km) Brightness Sun altitude
Exits shadow 18:26:02 - 145° (SE) 2,492 4.2 -10.3°
Reaches altitude 10° 18:26:40 10° 143° (SE) 2,243 3.9 -10.4°
Maximum altitude 18:31:26 52° 68° (ENE) 930 2.2 -11.1°
Drops below altitude 10° 18:36:18 10° 353° (N) 2,299 4.8 -11.8°
Sets 18:38:41 0° 349° (N) 3,243 5.7 -12.2°
